#timestamp,LO_Frequency,Hit,StdDev 
1644570015.9,286046985.3,N
1644570035.7,286046984.1,N
1644570055.6,286046979.4,N
1644570075.4,286046984.2,N
1644570095.2,286046987.9,N
1644570115.1,286046988.3,N
1644570116.0,286046988.3,N
1644570135.8,286046987.7,N
1644570155.7,286046991.4,N
1644570175.5,286046993.0,N
1644570195.3,286046991.6,N
1644570215.2,286046991.5,N
1644570235.0,286046988.9,Y
1644570235.9,286046988.9,P
1644570255.8,286047007.5,P
1644570275.6,286047006.2,N
1644570295.4,286047001.4,N
1644570315.3,286047007.5,N
1644570335.1,286047009.2,N
1644570355.8,286047007.4,N
1644570375.7,286047003.8,N
1644570395.5,286046999.7,N
1644570415.4,286046996.1,N
1644570435.2,286046998.0,N
1644570455.0,286046999.5,N
1644570455.9,286046999.5,N
1644570475.8,286046995.0,N
1644570495.6,286046994.6,N
1644570515.4,286046987.1,N
1644570535.3,286046993.0,N
1644570555.1,286046990.9,N
1644570575.9,286046995.1,N
1644570595.7,286046991.9,N
1644570615.5,286046990.2,N
1644570635.4,286046987.0,N
1644570655.2,286046988.4,N
1644570675.0,286046984.5,N
1644570676.0,286046984.5,N
1644570695.8,286046983.6,N
1644570715.6,286046980.2,N
1644570735.5,286046978.2,N
1644570755.3,286046981.5,N
1644570775.1,286046977.3,N
1644570795.9,286046983.2,N
1644570815.7,286046980.1,N
1644570835.6,286046976.2,N
1644570855.4,286046978.0,N
1644570875.2,286046980.4,N
1644570895.1,286046988.0,N
1644570896.0,286046988.0,N
1644570915.8,286046991.6,N
1644570935.6,286046991.6,N
1644570955.5,286046986.8,N
1644570975.3,286046980.5,N
1644570995.2,286046984.1,N
1644571015.9,286046984.7,N
1644571035.7,286046984.7,N
1644571055.6,286046986.3,N
1644571075.4,286046980.9,Y
1644571095.2,286046995.7,P
1644571115.1,286046990.6,N
1644571116.0,286046990.6,N
1644571135.8,286046988.5,Y
1644571155.7,286047005.5,P
1644571175.5,286047008.4,N
1644571195.3,286047003.1,N
1644571215.2,286047006.6,N
1644571235.0,286047012.4,N
1644571235.9,286047012.4,N
1644571255.7,286047012.1,N
1644571275.6,286047008.5,N
1644571295.4,286047010.8,N
1644571315.3,286047011.6,N
1644571335.1,286047011.5,N
1644571336.0,286047011.5,N
1644571355.8,286047008.4,N
1644571375.7,286047008.0,N
1644571395.5,286047009.2,N
1644571415.4,286047006.8,N
1644571435.2,286047007.7,N
1644571455.0,286047006.6,N
1644571455.9,286047006.6,N
1644571475.8,286047003.3,N
1644571495.6,286047002.0,N
1644571515.4,286047007.4,N
1644571535.3,286047002.9,N
1644571555.1,286047003.7,N
1644571575.9,286047001.7,N
1644571595.7,286046997.2,N
1644571615.5,286047001.6,N
1644571635.4,286047005.4,N
1644571655.2,286047008.0,N
1644571675.0,286047007.8,N
1644571675.9,286047007.8,N
1644571695.8,286047016.5,Y
1644571715.6,286047011.9,P
1644571735.5,286047015.6,P
1644571755.3,286047013.7,P
1644571775.1,286047012.1,Y
1644571795.9,286046995.1,P
1644571815.7,286046994.1,N
1644571835.5,286046993.0,N
1644571855.4,286046982.3,N
1644571875.2,286046979.7,N
1644571895.1,286046972.6,N
1644571896.0,286046972.6,N
1644571915.8,286046969.7,N
1644571935.6,286046964.5,N
1644571955.5,286046962.1,N
1644571975.3,286046956.9,N
1644571995.1,286046955.7,N
1644572015.9,286046955.6,N
1644572035.7,286046953.3,N
1644572055.6,286046955.8,N
1644572075.4,286046957.4,N
1644572095.2,286046953.5,N
1644572115.1,286046950.4,N
1644572116.0,286046950.4,N
1644572135.8,286046956.1,N
1644572155.6,286046953.4,N
1644572175.5,286046956.1,N
1644572195.3,286046956.0,N
1644572215.2,286046954.0,N
1644572235.9,286046960.8,N
1644572255.7,286046961.2,N
1644572275.6,286046960.7,N
1644572295.4,286046963.1,N
1644572315.2,286046967.4,N
1644572335.1,286046965.9,N
1644572336.0,286046965.9,N
1644572355.8,286046966.5,N
1644572375.7,286046968.1,Y
1644572395.5,286047003.8,P
1644572415.3,286047005.5,N
1644572435.2,286047003.5,N
1644572455.0,286047000.3,N
1644572455.9,286047000.3,N
1644572475.8,286047003.1,N
1644572495.6,286047005.7,N
1644572515.4,286047003.4,N
1644572535.3,286046999.8,N
1644572555.1,286047004.4,N
1644572575.8,286047004.8,N
1644572595.7,286047012.2,N
1644572615.5,286047010.3,N
1644572635.4,286047007.6,N
1644572655.2,286047004.9,N
1644572675.0,286047007.8,N
1644572675.9,286047007.8,N
1644572695.8,286047018.5,N
1644572715.6,286047018.2,N
1644572735.4,286047023.9,N
1644572755.3,286047025.3,N
1644572775.1,286047029.9,N
1644572795.9,286047023.7,N
1644572815.7,286047029.4,N
1644572835.5,286047031.4,N
1644572855.4,286047027.1,N
1644572875.2,286047027.5,N
1644572895.0,286047025.6,N
1644572896.0,286047025.6,N
1644572915.8,286047024.2,N
1644572935.6,286047028.4,N
1644572955.5,286047031.8,N
1644572975.3,286047035.0,Y
1644572995.1,286047020.0,P
1644573015.9,286047012.7,P
1644573035.7,286047011.4,P
1644573055.6,286047007.9,N
1644573075.4,286047008.2,N
1644573095.2,286047005.7,N
1644573115.1,286047004.5,N
1644573116.0,286047004.5,N
1644573135.8,286047011.6,N
1644573155.6,286047014.2,N
1644573175.5,286047015.2,Y
1644573195.3,286047000.8,P
1644573215.2,286047000.6,N
1644573235.9,286047001.5,N
1644573255.7,286047002.1,N
1644573275.6,286046998.8,N
1644573295.4,286046996.9,N
1644573315.2,286047000.9,N
1644573335.1,286047004.7,N
1644573336.0,286047004.7,N
1644573355.8,286047002.5,N
1644573375.7,286047001.2,N
1644573395.5,286047003.8,N
1644573415.3,286047010.7,Y
1644573435.2,286047006.5,P
1644573455.0,286047007.9,P
1644573455.9,286047007.9,P
1644573475.7,286047008.4,Y
1644573495.6,286046997.4,P
1644573515.4,286047001.1,N
1644573535.3,286047002.6,N
1644573555.1,286046997.5,N
1644573556.0,286046997.5,N
1644573575.8,286046995.3,N
1644573595.7,286046999.6,N
